Location: La Comballaz
(46.3780°N, 7.0817°E)
Time: 06:26:42
(UTC+00:00)

Cosmos 2366 rocket - Pass Details

Date: 09 April 2020
Orbit: 956 x 996 km, 82.9° (Epoch: 29 May)

Event Time Altitude Azimuth Distance (km) Brightness Sun altitude
Rises 19:36:07 0° 355° (N) 3,647 7.5 -14.4°
Reaches altitude 10° 19:38:45 10° 2° (N) 2,697 6.7 -14.8°
Maximum altitude 19:44:39 46° 75° (ENE) 1,272 4.3 -15.7°
Enters shadow 19:48:10 23° 136° (SE) 1,907 4.9 -16.2°
